STARLINK-38152, 100157

Orbit data source: Space-Track

STARLINK-38152, 100157 is a payload satellite owned by SpaceX/Seattle (US) in SSO that was launched on Sat, 25 Jul 2026 UTC launched from the Air Force Western Test Range (AFWTR). Payload-class satellites include a variety of spacecraft equipped with specific instruments for various scientific and technological missions. These include communications satellites like Starlink; space stations such as the ISS; scientific satellites like the Hubble; Earth observation satellites from companies like Planet Labs, Umbra, and HawkEye 360; GPS; miniature CubeSats for education and research; and military/defense satellites.

Not visible in the next 10 days
Identifier
100157, 2026-171K
Orbit
SSO
Country
Flag of USUS
Related business
Manufacturer
SpaceX/Seattle
Mission
Operational spacecraft
Bus & Motor
STARLINK V2MO, Unknown motor
Mass
575 kg wet, ~530 kg dry
Launch date (UTC)
2026-07-25 (3 weeks ago)
Launch vehicle
Unknown
Launch site
Air Force Western Test Range (AFWTR)
Object type
Payload
Rocket body
Debris
Shape & HBR
BOX + PAN, 17.7 m
Radar Cross Section
RCS unknown

Expand to show TLE details & history
Last TLE update: 9 hours ago

TLE from 9 hours ago
0 STARLINK-38152
1 A0157U 26171K   26227.55106842  .00133400  00000-0  87960-3 0  9994
2 A0157  97.2839 259.3947 0000491 296.8410  63.2805 15.75235938  3315
Epoch: 2026-08-15T13:13Z
TLE epoch observation values (Epoch: 2026-08-15T13:13:32.311Z)
Latitude
-0.00002°
Longitude
97.04975°
Altitude
346.98 km
Speed
7.701 km/s
True Right ascension
17h 17m 34s
True Declination
0° 00' 00"
Sunlit
Object was in full shadow at epoch
Visualization orbit readout
Latitude
Unknown
Longitude
Unknown
Altitude
Unknown
Speed
Unknown
Apparent Right ascension
Unknown
Apparent Declination
Unknown
Sunlit
N/A
Visualization observer readout
Local Sidereal Time
13:14:00
Azimuth
Unknown
Elevation
Unknown
Doppler factor
Unknown
Orbital elements
Apogee altitude
341.177 km
Perigee altitude
340.517 km
Semi-major axis
6,718.984 km
Eccentricity
0.00005
Inclination
97.2839°
RAAN
259.3947°
Arg. of periapsis
296.841°
True anomaly
63.28553°
Mean anomaly
63.2805°
Eccentric anomaly
63.28301°
Mean motion
3.94083 °/min
Orbital period
91.35 mins
BSTAR
0.0008796
Loading maneuver chart data...
Computing Atmospheric mass density...
Loading historical data...
Loading historical data...
Loading historical data...
Loading historical data...
Loading historical data...
Loading historical data...
Loading historical data...

Documentation

Showing up to 5 results
|